Wellsville, NY

10:24 AM EDT on October 22, 2019 (GMT -0400)
Wellsville Municipal-Tarantine

Weather History for KELZ - August, 2019

Change the Weather History Date:

Saturday, August 31, 2019

  Actual Average (WUND) Record (WUND)
Temperature  
Mean Temperature 57 °F -  
Max Temperature 69 °F - - (-1)
Min Temperature 46 °F - - (-1)
Degree Days  
Heating Degree Days 8    
Growing Degree Days 7 (Base 50)    
Moisture  
Dew Point 51 °F    
Average Humidity 88    
Maximum Humidity 100    
Minimum Humidity 49    
Precipitation  
Precipitation 0.00 in - - ()
Sea Level Pressure  
Sea Level Pressure 30.30 in    
Wind  
Wind Speed 1 mph ()    
Max Wind Speed 8 mph    
Max Gust Speed -    
Visibility 5.2 miles    
Events Fog    
Averages and records for this station are not official NWS values.
T = Trace of Precipitation, MM = Missing Value Source: Averaged Metar Reports

Daily Weather History Graph

Daily Weather History Graph

Search for Another Location

Airport or City:

Astronomy

Aug. 31, 2019 Rise Set
Actual Time 6:36 AM EDT 7:47 PM EDT
Civil Twilight 6:07 AM EDT 8:16 PM EDT
Nautical Twilight 5:32 AM EDT 8:50 PM EDT
Astronomical Twilight 4:56 AM EDT 9:27 PM EDT
Moon 7:50 AM EDT (8/31) 8:58 PM EDT (8/31)
Length of Visible Light 14h 09m
Length of Day
13h 11m
New Moon, 2% of the Moon is Illuminated
Aug 31
New Moon
Sep 5
First Quarter
Sep 14
Full
Sep 21
Last Quarter
Sep 28
New

Hourly Weather History & Observations

Time (EDT) Temp. Dew Point Humidity Pressure Visibility Wind Dir Wind Speed Gust Speed Precip Events Conditions
12:56 AM 55.9 °F 54.0 °F 93% 30.22 in 10.0 mi NW 3.5 mph - N/A   Clear
1:56 AM 54.0 °F 54.0 °F 100% 30.23 in 10.0 mi NW 3.5 mph - N/A   Clear
2:19 AM 53.1 °F 53.1 °F 100% 30.25 in 1.0 mi Calm Calm - N/A   Mist
2:26 AM 53.1 °F 53.1 °F 100% 30.25 in 0.5 mi Calm Calm - N/A Fog Fog
2:38 AM 53.1 °F 53.1 °F 100% 30.25 in 1.2 mi Calm Calm - N/A   Partly Cloudy
2:43 AM 54.0 °F 53.1 °F 97% 30.25 in 3.0 mi Calm Calm - N/A   Partly Cloudy
2:49 AM 52.0 °F 52.0 °F 100% 30.25 in 0.5 mi Calm Calm - N/A Fog Fog
2:51 AM 51.8 °F 51.8 °F 100% 30.25 in 0.2 mi Calm Calm - N/A Fog Fog
2:56 AM 52.0 °F 52.0 °F 100% 30.24 in 0.2 mi Calm Calm - N/A Fog Fog
3:01 AM 53.1 °F 53.1 °F 100% 30.25 in 1.2 mi Calm Calm - N/A   Scattered Clouds
3:03 AM 53.1 °F 53.1 °F 100% 30.25 in 3.0 mi Calm Calm - N/A   Scattered Clouds
3:56 AM 52.0 °F 51.1 °F 97% 30.25 in 10.0 mi Calm Calm - N/A   Clear
4:23 AM 48.9 °F 48.9 °F 100% 30.26 in 1.0 mi Calm Calm - N/A   Mist
4:30 AM 50.0 °F 50.0 °F 100% 30.26 in 0.8 mi Calm Calm - N/A   Mist
4:42 AM 48.9 °F 48.9 °F 100% 30.26 in 0.2 mi Calm Calm - N/A Fog Fog
4:54 AM 50.0 °F 50.0 °F 100% 30.26 in 1.0 mi WNW 3.5 mph - N/A   Mist
4:56 AM 50.0 °F 50.0 °F 100% 30.26 in 3.0 mi WNW 3.5 mph - N/A   Scattered Clouds
5:35 AM 48.9 °F 48.9 °F 100% 30.27 in 0.8 mi Calm Calm - N/A   Mist
5:48 AM 48.9 °F 48.9 °F 100% 30.28 in 2.0 mi Calm Calm - N/A   Clear
5:56 AM 48.9 °F 48.0 °F 97% 30.28 in 9.0 mi Calm Calm - N/A   Clear
5:59 AM 48.9 °F 48.0 °F 97% 30.28 in 1.8 mi Calm Calm - N/A   Partly Cloudy
6:06 AM 46.9 °F 46.9 °F 100% 30.28 in 0.2 mi Calm Calm - N/A Fog Fog
6:56 AM 46.0 °F 46.0 °F 100% 30.31 in 0.2 mi Calm Calm - N/A Fog Fog
7:35 AM 48.0 °F 48.0 °F 100% 30.31 in 1.0 mi Calm Calm - N/A   Mist
7:37 AM 48.0 °F 48.0 °F 100% 30.31 in 4.0 mi Calm Calm - N/A   Partly Cloudy
7:56 AM 48.0 °F 48.0 °F 100% 30.33 in 10.0 mi Calm Calm - N/A   Partly Cloudy
8:16 AM 50.0 °F 50.0 °F 100% 30.33 in 1.2 mi Calm Calm - N/A   Scattered Clouds
8:19 AM 50.0 °F 50.0 °F 100% 30.33 in 0.8 mi Calm Calm - N/A   Mist
8:39 AM 51.1 °F 51.1 °F 100% 30.33 in 0.2 mi Calm Calm - N/A Fog Fog
8:56 AM 52.0 °F 52.0 °F 100% 30.34 in 1.5 mi Calm Calm - N/A   Mostly Cloudy
9:11 AM 55.0 °F 54.0 °F 96% 30.33 in 10.0 mi Calm Calm - N/A   Scattered Clouds
9:56 AM 60.1 °F 55.0 °F 83% 30.34 in 10.0 mi Calm Calm - N/A   Clear
10:56 AM 63.0 °F 48.9 °F 60% 30.35 in 10.0 mi NNE 3.5 mph - N/A   Clear
11:56 AM 64.0 °F 50.0 °F 60% 30.35 in 10.0 mi Calm Calm - N/A   Scattered Clouds
12:56 PM 66.0 °F 50.0 °F 56% 30.34 in 10.0 mi WNW 8.1 mph - N/A   Mostly Cloudy
1:56 PM 68.0 °F 48.0 °F 49% 30.33 in 10.0 mi North - - N/A   Clear
2:56 PM 66.9 °F 48.9 °F 52% 30.32 in 10.0 mi NW 8.1 mph - N/A   Clear
3:56 PM 68.0 °F 50.0 °F 52% 30.32 in 10.0 mi Variable 4.6 mph - N/A   Clear
4:56 PM 68.0 °F 51.1 °F 55% 30.33 in 10.0 mi North 4.6 mph - N/A   Clear
5:56 PM 64.9 °F 50.0 °F 58% 30.34 in 10.0 mi North 3.5 mph - N/A   Clear
6:56 PM 63.0 °F 48.0 °F 58% 30.35 in 10.0 mi North 3.5 mph - N/A   Clear
7:56 PM 63.0 °F 46.0 °F 54% 30.35 in 10.0 mi North 3.5 mph - N/A   Clear
8:56 PM 59.0 °F 52.0 °F 78% 30.35 in 10.0 mi East 4.6 mph - N/A   Clear
9:56 PM 55.9 °F 53.1 °F 90% 30.35 in 10.0 mi East 4.6 mph - N/A   Clear
10:56 PM 55.0 °F 53.1 °F 93% 30.34 in 10.0 mi East 3.5 mph - N/A   Clear
11:56 PM 54.0 °F 52.0 °F 93% 30.34 in 10.0 mi ESE 4.6 mph - N/A   Clear